Regional Weather Roundup
Issued by NWS

Home | Current Version | Previous Version | Text Only | Print | Product List | Glossary Off
Versions: 1 2 3 4 5 6 7 8 9 10 11 12 13 14 15 16 17 18 19 20 21 22 23 24 25 26 27 28 29 30 31 32 33 34 35 36 37 38 39 40 41 42 43 44 45 46 47 48 49 50

000
ASUS45 KABQ 191801
RWRNM
WEATHER ROUNDUP FOR NEW MEXICO
NATIONAL WEATHER SERVICE ALBUQUERQUE NM
1200 PM MDT SAT APR 19 2014

NOTE: "FAIR" MEANS FEW OR NO CLOUDS BELOW 12,000 FEET AGL WITH NO
       SIGNIFICANT WEATHER OR OBSTRUCTIONS TO VISION.

      THIS PRODUCT IS RELEASED AS TWO VERSIONS.  ONE VERSION NEAR
      THE TOP OF THE HOUR CONTAINING PRELIMINARY DATA FROM ALBUQUERQUE
      AND OTHER STATIONS.  A FINAL VERSION WITH ADDITIONAL DATA IS
      ISSUED ABOUT 10 MINUTES AFTER THE HOUR.

NMZ501-503-504-510>518-191900-
NORTHWEST PLATEAU/NORTHCENTRAL MOUNTAINS

CITY           SKY/WX    TMP DP  RH WIND       PRES   REMARKS
FARMINGTON     MOSUNNY   63  36  36 CALM      30.12F
6HR MIN TEMP:  44; 6HR MAX TEMP:  63;

LOS ALAMOS     CLOUDY    55  37  49 CALM      30.17F
SANTA FE       CLOUDY    63  34  33 SW13G21   30.13F
6HR MIN TEMP:  40; 6HR MAX TEMP:  64;

TAOS           PTSUNNY   55  34  44 NW5       30.20F
ANGEL FIRE     FAIR      53  32  44 W16G26    30.22F

$$
NMZ402-403-502-505>509-191900-
WESTCENTRAL MOUNTAINS/SOUTHWEST MOUNTAINS

CITY           SKY/WX    TMP DP  RH WIND       PRES   REMARKS
GALLUP         MOSUNNY   61  32  33 MISG      30.15F
6HR MIN TEMP:  32; 6HR MAX TEMP:  61;

SILVER CITY    PTSUNNY   59  41  51 N6        30.13F

$$
NMZ407-409-411-412-191900-
SOUTHERN DESERTS

CITY           SKY/WX    TMP DP  RH WIND       PRES   REMARKS
LORDSBURG      FAIR      64  45  48 SE3       30.07F
DEMING         SUNNY     66  48  52 VRB3      30.08F
6HR MIN TEMP:  52; 6HR MAX TEMP:  66; 6HR PCP:  0.16;

LAS CRUCES     PTSUNNY   64  46  51 N16G22    30.12S
HOLLOMAN AFB   CLOUDY    62  53  70 NW12      30.11F
ALAMOGORDO     CLOUDY    63  54  72 NW12      30.12F
T OR C         CLOUDY    57  47  69 N10       30.13F
6HR MIN TEMP:  51; 6HR MAX TEMP:  58; 6HR PCP:  0.21;


$$
NMZ519>523-191900-
CENTRAL VALLEYS/CENTRAL HIGHLANDS

CITY           SKY/WX    TMP DP  RH WIND       PRES   REMARKS
ALBUQUERQUE    PTSUNNY   57  42  57 SW6       30.14F
6HR MIN TEMP:  48; 6HR MAX TEMP:  59; 6HR PCP: TRACE;

DOUBLE EAGLE   PTSUNNY  N/A N/A N/A S7        30.15F
MORIARTY ARPT  FAIR      60  38  43 W6        30.16F
6HR MIN TEMP:  37; 6HR MAX TEMP:  60;

CLINES CORNERS PTSUNNY   55  40  56 W13       30.15F
6HR MIN TEMP:  42; 6HR MAX TEMP:  57; 6HR PCP: TRACE;

BELEN          CLOUDY    55  47  73 S7        30.15S
6HR MIN TEMP:  47; 6HR MAX TEMP:  55; 6HR PCP:  0.06;

SOCORRO        NOT AVBL

$$
NMZ524>526-539-540-191900-
SOUTHCENTRAL MOUNTAINS

CITY           SKY/WX    TMP DP  RH WIND       PRES   REMARKS
RUIDOSO        NOT AVBL

$$
NMZ527>531-191900-
NORTHEAST HIGHLANDS/NORTHEAST PLAINS

CITY           SKY/WX    TMP DP  RH WIND       PRES   REMARKS
LAS VEGAS      MOSUNNY   63  31  30 S16       30.12F
6HR MIN TEMP:  40; 6HR MAX TEMP:  64;

RATON          MOSUNNY   68  31  25 S10       30.08S
6HR MIN TEMP:  41; 6HR MAX TEMP:  69;

CLAYTON        PTSUNNY   74  29  19 W18G26    30.03F
6HR MIN TEMP:  49; 6HR MAX TEMP:  77;


$$
NMZ532>537-191900-
EASTCENTRAL PLAINS

CITY           SKY/WX    TMP DP  RH WIND       PRES   REMARKS
TUCUMCARI      MOSUNNY   76  43  30 S18G25    30.03F
6HR MIN TEMP:  56; 6HR MAX TEMP:  77; 6HR PCP: TRACE;

CANNON AFB     CLOUDY    64  49  57 S21G26    30.13R
6HR MIN TEMP:  51; 6HR MAX TEMP:  68;

CLOVIS AIRPORT CLOUDY    64  46  52 S24G30    30.15S

$$
NMZ028-029-538-191900-
SOUTHEAST PLAINS

CITY           SKY/WX    TMP DP  RH WIND       PRES   REMARKS
ROSWELL        CLOUDY    57  54  89 E6        30.10F
6HR MIN TEMP:  56; 6HR MAX TEMP:  62; 6HR PCP:  0.09;

ARTESIA        LGT RAIN  55  55 100 SW5       30.13R
CARLSBAD       LGT RAIN  59  55  87 W6        30.14R FOG
6HR MIN TEMP:  55; 6HR MAX TEMP:  60; 6HR PCP:  0.15;

HOBBS          CLOUDY    64  54  68 SW7       30.14R


$$



USA.gov is the U.S. government's official web portal to all federal, state and local government web resources and services.